KLM342 LIEO-EDDM

Flight info

Callsign KLM342
Flight time 1h 14m
Altitude 36000
Route BATOX DCT DEDOM DCT ELB DCT BETMU DCT ADOSA DCT GUNGO DCT SOTOV T101 BETOS BETOS1B
Aircraft B738/M-SDE2E3FGHIR/S

Departure

Time 2026-05-06 15:21
Airport Olbia Costa Smeralda Airport (LIEO)

Arrival

Time 2026-05-06 16:35
Airport Munich Airport (EDDM)
Time Latitude Longitude Altitude Speed Heading
2026-05-06 15:06 40.90167 9.51523 49 ft 0 kts 325°
2026-05-06 15:12 40.90162 9.51528 48 ft 2 kts 325°
2026-05-06 15:13 40.90148 9.51541 48 ft 3 kts 315°
2026-05-06 15:13 40.90137 9.51562 48 ft 3 kts 293°
2026-05-06 15:13 40.90133 9.51589 48 ft 3 kts 270°
2026-05-06 15:13 40.90133 9.51594 49 ft 0 kts 267°
2026-05-06 15:14 40.90132 9.51584 49 ft 3 kts 261°
2026-05-06 15:14 40.90123 9.51550 49 ft 5 kts 246°
2026-05-06 15:15 40.90101 9.51505 49 ft 6 kts 230°
2026-05-06 15:15 40.90055 9.51501 49 ft 8 kts 164°
2026-05-06 15:15 40.89997 9.51528 49 ft 10 kts 161°
2026-05-06 15:15 40.89932 9.51503 49 ft 11 kts 231°
2026-05-06 15:16 40.89882 9.51412 49 ft 13 kts 237°
2026-05-06 15:16 40.89828 9.51304 49 ft 15 kts 236°
2026-05-06 15:16 40.89765 9.51181 49 ft 17 kts 236°
2026-05-06 15:16 40.89694 9.51042 49 ft 19 kts 235°
2026-05-06 15:17 40.89626 9.50911 49 ft 18 kts 236°
2026-05-06 15:17 40.89552 9.50768 49 ft 20 kts 236°
2026-05-06 15:17 40.89493 9.50653 49 ft 15 kts 236°
2026-05-06 15:17 40.89433 9.50536 49 ft 9 kts 236°
2026-05-06 15:18 40.89393 9.50460 49 ft 11 kts 226°
2026-05-06 15:18 40.89320 9.50449 49 ft 11 kts 150°
2026-05-06 15:18 40.89298 9.50482 49 ft 0 kts 117°
2026-05-06 15:19 40.89296 9.50486 49 ft 4 kts 118°
2026-05-06 15:19 40.89275 9.50568 49 ft 14 kts 99°
2026-05-06 15:19 40.89323 9.50717 49 ft 26 kts 56°
2026-05-06 15:19 40.89434 9.50941 49 ft 22 kts 57°
2026-05-06 15:20 40.89448 9.50968 49 ft 0 kts 57°
2026-05-06 15:20 40.89455 9.50981 48 ft 12 kts 55°
2026-05-06 15:21 40.89649 9.51347 49 ft 90 kts 56°
2026-05-06 15:21 40.90159 9.52321 88 ft 163 kts 55°
2026-05-06 15:21 40.90899 9.53742 485 ft 198 kts 56°
2026-05-06 15:21 40.91675 9.55248 859 ft 205 kts 55°
2026-05-06 15:22 40.92510 9.56874 1194 ft 219 kts 56°
2026-05-06 15:22 40.93380 9.58562 1719 ft 227 kts 56°
2026-05-06 15:22 40.94286 9.60291 2250 ft 229 kts 56°
2026-05-06 15:22 40.95221 9.62008 2776 ft 229 kts 56°
2026-05-06 15:23 40.96202 9.63718 3403 ft 246 kts 56°
2026-05-06 15:23 40.97281 9.65553 4042 ft 258 kts 56°
2026-05-06 15:23 40.98407 9.67498 4686 ft 267 kts 55°
2026-05-06 15:23 40.99521 9.69479 5331 ft 274 kts 55°
2026-05-06 15:24 41.00643 9.71553 5992 ft 281 kts 55°
2026-05-06 15:24 41.01774 9.73701 6660 ft 286 kts 56°
2026-05-06 15:24 41.02924 9.75880 7311 ft 290 kts 56°
2026-05-06 15:24 41.04087 9.78081 7965 ft 293 kts 56°
2026-05-06 15:25 41.05265 9.80310 8627 ft 296 kts 56°
2026-05-06 15:25 41.06457 9.82567 9286 ft 300 kts 56°
2026-05-06 15:25 41.07661 9.84853 9948 ft 304 kts 56°
2026-05-06 15:25 41.08878 9.87174 10614 ft 309 kts 56°
2026-05-06 15:26 41.10095 9.89548 11281 ft 322 kts 59°
2026-05-06 15:26 41.10994 9.92326 11977 ft 333 kts 72°
2026-05-06 15:26 41.11839 9.95256 12659 ft 347 kts 67°
2026-05-06 15:26 41.12981 9.98144 13350 ft 360 kts 60°
2026-05-06 15:27 41.14310 10.01025 14050 ft 372 kts 58°
2026-05-06 15:27 41.15718 10.03961 14739 ft 384 kts 57°
2026-05-06 15:27 41.17173 10.07007 15425 ft 395 kts 57°
2026-05-06 15:27 41.18664 10.10140 16112 ft 406 kts 58°
2026-05-06 15:28 41.20273 10.13277 16760 ft 416 kts 50°
2026-05-06 15:28 41.22476 10.15777 17432 ft 420 kts 30°
2026-05-06 15:28 41.25179 10.17261 18105 ft 422 kts 11°
2026-05-06 15:28 41.28080 10.17880 18865 ft 425 kts
2026-05-06 15:29 41.31022 10.18579 19512 ft 433 kts
2026-05-06 15:29 41.33977 10.19466 20202 ft 438 kts
2026-05-06 15:29 41.36960 10.20383 20865 ft 442 kts
2026-05-06 15:29 41.39982 10.21303 21420 ft 449 kts
2026-05-06 15:30 41.43056 10.22238 21904 ft 456 kts
2026-05-06 15:30 41.45113 10.22864 22230 ft 460 kts
2026-05-06 15:30 41.48251 10.23818 22717 ft 466 kts
2026-05-06 15:30 41.52469 10.25105 23366 ft 472 kts
2026-05-06 15:31 41.54636 10.25766 23697 ft 474 kts
2026-05-06 15:31 41.57863 10.26752 24184 ft 478 kts
2026-05-06 15:31 41.61117 10.27746 24676 ft 480 kts
2026-05-06 15:32 41.67651 10.29746 25651 ft 483 kts
2026-05-06 15:32 41.70935 10.30753 26104 ft 485 kts
2026-05-06 15:32 41.74223 10.31763 26533 ft 487 kts
2026-05-06 15:32 41.77481 10.32764 26961 ft 488 kts
2026-05-06 15:33 41.80793 10.33783 27392 ft 489 kts
2026-05-06 15:33 41.84109 10.34805 27823 ft 489 kts
2026-05-06 15:33 41.87427 10.35827 28215 ft 490 kts
2026-05-06 15:33 41.90768 10.36858 28514 ft 493 kts
2026-05-06 15:34 41.94117 10.37893 28797 ft 493 kts
2026-05-06 15:34 41.97453 10.38925 29094 ft 492 kts
2026-05-06 15:34 42.00790 10.39958 29394 ft 492 kts
2026-05-06 15:34 42.04131 10.40993 29687 ft 491 kts
2026-05-06 15:35 42.07460 10.42025 29987 ft 490 kts
2026-05-06 15:35 42.10788 10.42989 30266 ft 487 kts
2026-05-06 15:35 42.14137 10.43310 30536 ft 478 kts 352°
2026-05-06 15:35 42.17437 10.43044 30886 ft 475 kts 348°
2026-05-06 15:36 42.20734 10.42776 31168 ft 474 kts 349°
2026-05-06 15:36 42.24033 10.42579 31457 ft 474 kts 350°
2026-05-06 15:36 42.27327 10.42381 31756 ft 472 kts 351°
2026-05-06 15:36 42.30553 10.42184 32034 ft 470 kts 351°
2026-05-06 15:37 42.33819 10.41985 32326 ft 470 kts 351°
2026-05-06 15:37 42.37088 10.41785 32619 ft 470 kts 351°
2026-05-06 15:37 42.40351 10.41585 32905 ft 469 kts 351°
2026-05-06 15:37 42.43607 10.41386 33193 ft 468 kts 351°
2026-05-06 15:38 42.46867 10.41186 33488 ft 469 kts 351°
2026-05-06 15:38 42.50124 10.40986 33777 ft 468 kts 351°
2026-05-06 15:38 42.53383 10.40786 34067 ft 467 kts 351°
2026-05-06 15:38 42.56628 10.40587 34359 ft 467 kts 351°
2026-05-06 15:39 42.59860 10.40387 34646 ft 465 kts 351°
2026-05-06 15:39 42.63092 10.40189 34936 ft 464 kts 351°
2026-05-06 15:39 42.66313 10.39990 35223 ft 463 kts 351°
2026-05-06 15:39 42.69532 10.39792 35512 ft 462 kts 351°
2026-05-06 15:40 42.72744 10.39684 35779 ft 465 kts 355°
2026-05-06 15:40 42.75982 10.40123 35942 ft 469 kts
2026-05-06 15:40 42.82434 10.41567 35929 ft 470 kts
2026-05-06 15:41 42.88905 10.42947 35925 ft 470 kts
2026-05-06 15:41 42.95370 10.44330 35927 ft 470 kts
2026-05-06 15:42 43.01801 10.45708 35926 ft 470 kts
2026-05-06 15:42 43.08267 10.47097 35926 ft 470 kts
2026-05-06 15:43 43.14738 10.48490 35926 ft 471 kts
2026-05-06 15:43 43.21207 10.49886 35927 ft 470 kts
2026-05-06 15:44 43.27679 10.51285 35927 ft 470 kts
2026-05-06 15:44 43.34144 10.52686 35927 ft 471 kts
2026-05-06 15:45 43.40614 10.54090 35928 ft 471 kts
2026-05-06 15:45 43.47051 10.55491 35929 ft 471 kts
2026-05-06 15:46 43.53579 10.56915 35933 ft 480 kts
2026-05-06 15:46 43.60246 10.58372 35932 ft 487 kts
2026-05-06 15:47 43.66935 10.59837 35936 ft 486 kts
2026-05-06 15:47 43.73622 10.61305 35938 ft 486 kts
2026-05-06 15:48 43.80316 10.62778 35940 ft 486 kts
2026-05-06 15:48 43.86999 10.64252 35937 ft 486 kts
2026-05-06 15:49 43.93693 10.65731 35941 ft 487 kts
2026-05-06 15:49 44.00396 10.67216 35947 ft 487 kts
2026-05-06 15:50 44.07097 10.68704 35954 ft 488 kts
2026-05-06 15:50 44.13807 10.70197 35959 ft 488 kts
2026-05-06 15:51 44.20472 10.71684 35963 ft 488 kts
2026-05-06 15:51 44.27187 10.73186 35959 ft 488 kts
2026-05-06 15:52 44.33897 10.74689 35947 ft 488 kts
2026-05-06 15:52 44.40611 10.76197 35930 ft 489 kts
2026-05-06 15:53 44.47329 10.77710 35910 ft 489 kts
2026-05-06 15:53 44.54047 10.79226 35890 ft 489 kts
2026-05-06 15:54 44.60774 10.80748 35874 ft 489 kts
2026-05-06 15:54 44.67505 10.82273 35866 ft 490 kts
2026-05-06 15:55 44.74209 10.83658 35857 ft 490 kts
2026-05-06 15:55 44.80951 10.85053 35854 ft 490 kts
2026-05-06 15:56 44.87703 10.86456 35824 ft 490 kts
2026-05-06 15:56 44.94460 10.87863 35838 ft 492 kts
2026-05-06 15:57 45.01232 10.89277 35841 ft 491 kts
2026-05-06 15:57 45.07999 10.90693 35843 ft 492 kts
2026-05-06 15:58 45.14787 10.92117 35846 ft 493 kts
2026-05-06 15:58 45.21569 10.93543 35846 ft 493 kts
2026-05-06 15:59 45.28367 10.94976 35842 ft 493 kts
2026-05-06 15:59 45.35158 10.96411 35845 ft 493 kts
2026-05-06 16:00 45.41957 10.97851 35847 ft 494 kts
2026-05-06 16:00 45.48772 10.99298 35849 ft 496 kts
2026-05-06 16:01 45.55593 11.00750 35852 ft 495 kts
2026-05-06 16:01 45.62367 11.02195 35859 ft 496 kts
2026-05-06 16:02 45.69186 11.03557 35878 ft 492 kts 357°
2026-05-06 16:02 45.76010 11.03873 35881 ft 490 kts 356°
2026-05-06 16:03 45.82831 11.04159 35883 ft 490 kts 356°
2026-05-06 16:03 45.89652 11.04442 35888 ft 491 kts 356°
2026-05-06 16:04 45.96474 11.04726 35894 ft 490 kts 356°
2026-05-06 16:04 46.03295 11.05003 35899 ft 491 kts 356°
2026-05-06 16:05 46.10145 11.05258 35903 ft 492 kts 356°
2026-05-06 16:05 46.16983 11.05514 35906 ft 492 kts 356°
2026-05-06 16:06 46.23831 11.05977 35904 ft 495 kts
2026-05-06 16:06 46.30669 11.07382 35807 ft 498 kts
2026-05-06 16:07 46.34095 11.08109 35551 ft 498 kts
2026-05-06 16:07 46.37484 11.08828 35278 ft 498 kts
2026-05-06 16:07 46.40918 11.09557 34966 ft 499 kts
2026-05-06 16:07 46.44366 11.10290 34633 ft 501 kts
2026-05-06 16:08 46.47819 11.11026 34303 ft 502 kts
2026-05-06 16:08 46.51283 11.11765 33974 ft 504 kts
2026-05-06 16:08 46.54764 11.12509 33642 ft 505 kts
2026-05-06 16:08 46.58239 11.13255 33313 ft 505 kts
2026-05-06 16:09 46.61720 11.13999 32984 ft 505 kts
2026-05-06 16:09 46.65199 11.14748 32656 ft 505 kts
2026-05-06 16:09 46.68680 11.15496 32328 ft 506 kts
2026-05-06 16:09 46.72159 11.16246 32001 ft 506 kts
2026-05-06 16:10 46.75640 11.16995 31674 ft 506 kts
2026-05-06 16:10 46.79122 11.17748 31349 ft 505 kts
2026-05-06 16:10 46.82597 11.18500 31022 ft 505 kts
2026-05-06 16:10 46.86083 11.19254 30699 ft 506 kts
2026-05-06 16:11 46.89557 11.20007 30373 ft 505 kts
2026-05-06 16:11 46.93036 11.20763 30049 ft 505 kts
2026-05-06 16:11 46.96519 11.21378 29801 ft 501 kts 358°
2026-05-06 16:11 46.99954 11.21483 29862 ft 501 kts 355°
2026-05-06 16:12 47.03482 11.21643 29683 ft 500 kts 357°
2026-05-06 16:12 47.06910 11.21886 29158 ft 499 kts 358°
2026-05-06 16:12 47.10369 11.22124 28636 ft 494 kts 358°
2026-05-06 16:12 47.13780 11.22355 28103 ft 486 kts 358°
2026-05-06 16:13 47.17132 11.22581 27578 ft 479 kts 358°
2026-05-06 16:13 47.20430 11.22802 27050 ft 471 kts 358°
2026-05-06 16:13 47.23677 11.23022 26518 ft 460 kts 359°
2026-05-06 16:13 47.26826 11.23233 25987 ft 448 kts 359°
2026-05-06 16:14 47.29899 11.23441 25460 ft 436 kts 359°
2026-05-06 16:14 47.32898 11.23644 24935 ft 428 kts 359°
2026-05-06 16:14 47.35866 11.23848 24426 ft 424 kts 359°
2026-05-06 16:14 47.38811 11.24049 23914 ft 421 kts 359°
2026-05-06 16:15 47.41724 11.24247 23404 ft 417 kts 359°
2026-05-06 16:15 47.44610 11.24444 22894 ft 413 kts 360°
2026-05-06 16:15 47.47476 11.24641 22383 ft 410 kts 359°
2026-05-06 16:15 47.50318 11.24836 21870 ft 406 kts 359°
2026-05-06 16:16 47.53099 11.25027 21344 ft 396 kts 359°
2026-05-06 16:16 47.54912 11.25146 20999 ft 391 kts 358°
2026-05-06 16:16 47.57624 11.25156 20509 ft 388 kts 356°
2026-05-06 16:16 47.61184 11.25115 19860 ft 385 kts 356°
2026-05-06 16:17 47.63857 11.25100 19373 ft 382 kts 356°
2026-05-06 16:17 47.66506 11.25087 18886 ft 379 kts 356°
2026-05-06 16:17 47.68284 11.25078 18557 ft 378 kts 356°
2026-05-06 16:17 47.70871 11.25067 18065 ft 371 kts 356°
2026-05-06 16:18 47.73430 11.25161 17537 ft 365 kts
2026-05-06 16:18 47.75880 11.26101 17062 ft 363 kts 18°
2026-05-06 16:18 47.78216 11.27531 16588 ft 362 kts 21°
2026-05-06 16:18 47.80549 11.28913 16090 ft 360 kts 20°
2026-05-06 16:19 47.82878 11.30219 15594 ft 356 kts 19°
2026-05-06 16:19 47.85195 11.31509 15096 ft 353 kts 19°
2026-05-06 16:19 47.87488 11.32786 14602 ft 350 kts 19°
2026-05-06 16:19 47.89835 11.33637 14089 ft 345 kts
2026-05-06 16:20 47.92218 11.33849 13823 ft 342 kts 359°
2026-05-06 16:20 47.94596 11.33975 13792 ft 342 kts
2026-05-06 16:20 47.96976 11.34158 13524 ft 342 kts
2026-05-06 16:20 47.99337 11.34360 13038 ft 338 kts
2026-05-06 16:21 48.01671 11.34561 12647 ft 335 kts
2026-05-06 16:21 48.03995 11.34759 12238 ft 333 kts
2026-05-06 16:21 48.06293 11.35121 11790 ft 332 kts 12°
2026-05-06 16:21 48.08368 11.36538 11404 ft 324 kts 33°
2026-05-06 16:22 48.10086 11.38626 11070 ft 315 kts 43°
2026-05-06 16:22 48.11707 11.40792 10805 ft 308 kts 42°
2026-05-06 16:22 48.13350 11.42850 10793 ft 308 kts 40°
2026-05-06 16:22 48.15009 11.44858 10786 ft 307 kts 39°
2026-05-06 16:23 48.16674 11.46866 10786 ft 307 kts 39°
2026-05-06 16:23 48.18338 11.48874 10783 ft 307 kts 39°
2026-05-06 16:23 48.19982 11.50858 10780 ft 307 kts 40°
2026-05-06 16:23 48.21645 11.52868 10780 ft 307 kts 40°
2026-05-06 16:24 48.23195 11.55056 10757 ft 306 kts 54°
2026-05-06 16:24 48.24089 11.57903 10787 ft 302 kts 76°
2026-05-06 16:24 48.24416 11.60992 10789 ft 299 kts 88°
2026-05-06 16:24 48.24565 11.64099 10745 ft 299 kts 89°
2026-05-06 16:25 48.24757 11.67191 10310 ft 296 kts 86°
2026-05-06 16:25 48.24984 11.70241 9872 ft 292 kts 85°
2026-05-06 16:25 48.25218 11.73252 9440 ft 289 kts 85°
2026-05-06 16:25 48.25450 11.76250 9010 ft 286 kts 84°
2026-05-06 16:26 48.25674 11.79182 8574 ft 279 kts 84°
2026-05-06 16:26 48.25894 11.82049 8144 ft 274 kts 84°
2026-05-06 16:26 48.26108 11.84864 7715 ft 269 kts 84°
2026-05-06 16:26 48.26320 11.87643 7312 ft 267 kts 83°
2026-05-06 16:27 48.26530 11.90408 6917 ft 267 kts 84°
2026-05-06 16:27 48.26738 11.93158 6512 ft 262 kts 84°
2026-05-06 16:27 48.26940 11.95826 6095 ft 253 kts 83°
2026-05-06 16:27 48.27132 11.98383 5688 ft 246 kts 83°
2026-05-06 16:28 48.27320 12.00905 5276 ft 241 kts 84°
2026-05-06 16:28 48.27504 12.03365 5004 ft 230 kts 84°
2026-05-06 16:28 48.27674 12.05641 4994 ft 211 kts 84°
2026-05-06 16:28 48.27832 12.07763 4973 ft 199 kts 84°
2026-05-06 16:29 48.27989 12.09815 4824 ft 199 kts 82°
2026-05-06 16:29 48.28567 12.11679 4430 ft 200 kts 50°
2026-05-06 16:29 48.29754 12.12655 4101 ft 195 kts 13°
2026-05-06 16:29 48.31092 12.12618 4053 ft 193 kts 355°
2026-05-06 16:30 48.32430 12.12381 4003 ft 193 kts 353°
2026-05-06 16:30 48.33332 12.12222 3998 ft 193 kts 352°
2026-05-06 16:30 48.34817 12.10964 3991 ft 177 kts 311°
2026-05-06 16:30 48.35461 12.09412 4005 ft 173 kts 300°
2026-05-06 16:31 48.35980 12.07782 3993 ft 173 kts 294°
2026-05-06 16:31 48.36413 12.06097 3978 ft 174 kts 286°
2026-05-06 16:31 48.36427 12.04312 4001 ft 173 kts 265°
2026-05-06 16:31 48.36227 12.02520 3999 ft 174 kts 260°
2026-05-06 16:32 48.36038 12.00730 3995 ft 173 kts 262°
2026-05-06 16:32 48.35887 11.98902 3857 ft 174 kts 264°
2026-05-06 16:32 48.35759 11.97131 3605 ft 172 kts 264°
2026-05-06 16:32 48.35629 11.95357 3400 ft 170 kts 264°
2026-05-06 16:33 48.35494 11.93592 3202 ft 170 kts 264°
2026-05-06 16:33 48.35354 11.91798 2985 ft 171 kts 264°
2026-05-06 16:33 48.35219 11.90075 2779 ft 161 kts 265°
2026-05-06 16:34 48.34972 11.86865 2354 ft 152 kts 265°
2026-05-06 16:34 48.34852 11.85295 2161 ft 151 kts 265°
2026-05-06 16:34 48.34732 11.83726 1965 ft 151 kts 265°
2026-05-06 16:34 48.34611 11.82159 1766 ft 150 kts 264°
2026-05-06 16:35 48.34491 11.80606 1563 ft 149 kts 265°
2026-05-06 16:35 48.34377 11.79143 1499 ft 117 kts 264°
2026-05-06 16:35 48.34305 11.78233 1499 ft 54 kts 263°
2026-05-06 16:35 48.34326 11.77845 1499 ft 21 kts 298°
2026-05-06 16:36 48.34379 11.77703 1499 ft 10 kts 301°
2026-05-06 16:36 48.34412 11.77619 1499 ft 9 kts 300°
2026-05-06 16:36 48.34441 11.77546 1499 ft 7 kts 304°
2026-05-06 16:36 48.34471 11.77494 1499 ft 7 kts 318°
2026-05-06 16:37 48.34524 11.77443 1499 ft 9 kts 338°
2026-05-06 16:37 48.34587 11.77425 1499 ft 11 kts 357°
2026-05-06 16:37 48.34632 11.77508 1499 ft 9 kts 83°
2026-05-06 16:37 48.34638 11.77611 1499 ft 13 kts 86°
2026-05-06 16:38 48.34641 11.77670 1499 ft 6 kts 82°
2026-05-06 16:38 48.34653 11.77754 1499 ft 5 kts 81°
2026-05-06 16:38 48.34661 11.77838 1499 ft 5 kts 81°
2026-05-06 16:38 48.34706 11.77885 1499 ft 13 kts
2026-05-06 16:39 48.34789 11.77880 1499 ft 5 kts 354°
2026-05-06 16:39 48.34796 11.77878 1499 ft 3 kts 353°
2026-05-06 16:39 48.34847 11.77851 1499 ft 8 kts 308°
2026-05-06 16:39 48.34865 11.77835 1499 ft 7 kts 347°
2026-05-06 16:40 48.34928 11.77841 1499 ft 8 kts
2026-05-06 16:40 48.34979 11.77842 1499 ft 7 kts 358°
2026-05-06 16:40 48.35024 11.77839 1499 ft 7 kts 355°
2026-05-06 16:40 48.35078 11.77829 1499 ft 9 kts 352°
2026-05-06 16:41 48.35152 11.77815 1499 ft 11 kts 359°
2026-05-06 16:41 48.35183 11.77892 1499 ft 10 kts 81°
2026-05-06 16:41 48.35192 11.78006 1499 ft 12 kts 83°
2026-05-06 16:41 48.35199 11.78124 1499 ft 8 kts 86°
2026-05-06 16:42 48.35202 11.78219 1499 ft 9 kts 97°
2026-05-06 16:42 48.35150 11.78273 1499 ft 10 kts 167°
2026-05-06 16:42 48.35093 11.78285 1499 ft 7 kts 175°
2026-05-06 16:42 48.35034 11.78293 1499 ft 10 kts 175°
2026-05-06 16:43 48.34990 11.78300 1499 ft 7 kts 174°
2026-05-06 16:43 48.34959 11.78311 1499 ft 5 kts 144°
2026-05-06 16:43 48.34948 11.78362 1499 ft 4 kts 90°
2026-05-06 16:43 48.34948 11.78390 1499 ft 0 kts 90°
2026-05-06 16:44 48.34948 11.78391 1499 ft 0 kts 90°